Regional Weather Roundup
Issued by NWS

Home | Current Version | Previous Version | Text Only | Print | Product List | Glossary Off
Versions: 1 2 3 4 5 6 7 8 9 10 11 12 13 14 15 16 17 18 19 20 21 22 23 24 25 26 27 28 29 30 31 32 33 34 35 36 37 38 39 40 41 42 43 44 45 46 47 48 49 50

000
ASUS43 KDTX 281101
RWRMI
MICHIGAN HOURLY REGIONAL WEATHER ROUNDUP
NATIONAL WEATHER SERVICE DETROIT/PONTIAC MI
700 AM EDT SAT MAY 28 2016

NOTE: "FAIR" INDICATES FEW OR NO CLOUDS BELOW 12,000 FEET WITH NO
SIGNIFICANT WEATHER AND/OR OBSTRUCTION TO VISIBILITY.

MIZ047>049-052>055-059>063-066>070-074>076-081>083-281200-
SOUTHEAST LOWER MICHIGAN

CITY           SKY/WX    TMP DP  RH WIND       PRES   REMARKS
ADRIAN         CLEAR     66  62  87 CALM      30.02R
ALMA           CLEAR     67  62  83 SW7       29.97S
ANN ARBOR      CLEAR     59  59 100 CALM      30.02R
BAD AXE        CLEAR     67  62  84 S5        30.00S
CARO           CLEAR     66  62  87 CALM      29.99R
DETROIT CITY   CLEAR     69  62  78 SE3       30.02R
DETROIT        MOCLDY    68  62  81 CALM      30.02R
FLINT          CLEAR     72  62  71 S5        30.00R
GROSSE ILE     CLEAR     66  63  88 CALM      30.01R
HILLSDALE      PTCLDY    67  60  78 SE3       30.02R
HOWELL         CLEAR     66  63  90 SE5       30.01R

CITY           SKY/WX    TMP DP  RH WIND       PRES   REMARKS
JACKSON        CLEAR     68  63  84 SE6       30.00R
LAMBERTVILLE   CLEAR     69  64  82 S3        30.02R
LANSING        CLEAR     69  61  75 S9        29.99R
LAPEER         FAIR      66  60  81 CALM      30.02R
MASON          CLEAR     67  62  82 SE3       29.99S
MONROE         CLEAR     64  62  93 E5        30.01S
MT. CLEMENS    CLEAR     63  63 100 CALM      30.02R
PONTIAC        CLEAR     65  61  87 CALM      30.02R
PORT HOPE        N/A     71  63  75 SW6       29.98R
PORT HURON     CLEAR     63  61  94 CALM      30.03R
TRI CITIES     CLEAR     71  62  73 S7        29.98R
MIDLAND        FAIR      64  64 100 CALM      29.97R
TROY           CLEAR     68  63  84 CALM      30.04R
SAGINAW HB     CLEAR     70  61  73 S6        29.98R
$$
MIZ043>046-050>051-056>058-064>065-071>073-077>080-281200-
SOUTHWEST LOWER MICHIGAN

CITY           SKY/WX    TMP DP  RH WIND       PRES   REMARKS
BATTLE CREEK   CLOUDY    69  63  81 S9        29.98R
BENTON HARBOR  CLOUDY    73  62  68 S8        29.92R
BIG RAPIDS     MOCLDY    66  66  97 CALM      29.94S
COLDWATER      MOCLDY    70  63  78 S5        29.99R
FREMONT        FAIR      68  68 100 SE5       29.92S
HOLLAND        CLOUDY    70  63  78 SE9       29.92S
GRAND RAPIDS   CLOUDY    70  62  76 S6        29.95R
IONIA          FAIR      67  60  77 SE8       29.96R
KALAMAZOO      CLOUDY    71  61  70 S7        29.96S
LUDINGTON      CLOUDY    68  64  88 SE6       29.90S
MARSHALL       MOCLDY    70  63  78 SE5       29.98R
MOUNT PLEASANT CLOUDY    64  64  99 CALM      29.96S
MUSKEGON       CLOUDY    72  63  73 SE8       29.91S
SOUTH HAVEN    CLOUDY    71  63  76 S3        29.92S
$$
MIZ016>042-281200-
NORTHERN LOWER MICHIGAN

CITY           SKY/WX    TMP DP  RH WIND       PRES   REMARKS
ALPENA         CLOUDY    62  60  93 SE5       29.98R FOG
BEAVER ISLAND  DRIZZLE   66  64  96 S6        29.89S
BELLAIRE       CLOUDY    69  65  84 CALM      29.92R
CADILLAC       MOCLDY    67  64  88 S6        29.95R
CHARLEVOIX     MOCLDY    69  65  88 S5        29.93S
FRANKFORT      MOCLDY    71  64  79 S10G17    29.89R
GAYLORD        PTCLDY    68  64  87 S8        29.96R
GRAYLING       MOCLDY    67  65  93 CALM      29.97R
HARBOR SPRINGS CLOUDY    68  64  88 CALM      29.92R
HOUGHTON LAKE  PTCLDY    66  64  93 SE3       29.97S
MANISTEE       CLOUDY    68  61  77 SE5       29.91S
OSCODA         PTCLDY    63  58  85 CALM      29.98R
PELLSTON       CLOUDY    66  64  93 SE6       29.92R
ROGERS CITY    CLOUDY    65  62  91 SE3       29.97R
TRAVERSE CITY  CLOUDY    70  64  81 S5        29.89R
$$
MIZ007>008-015-281200-
EASTERN UPPER MICHIGAN

CITY           SKY/WX    TMP DP  RH WIND       PRES   REMARKS
KINROSS          N/A     61  61 100 SE12      29.93R
MACKINAC ISLAN RAIN      54  54 100 SE8       29.92R
NEWBERRY       LGT RAIN  65  64  97 S12       29.88S
S. S. MARIE    LGT RAIN  60  58  92 E8        29.93S
MUNISING         N/A     65  62  90 S9        29.82S
$$
MIZ004>006-011>014-085-281200-
CENTRAL UPPER MICHIGAN

CITY           SKY/WX    TMP DP  RH WIND       PRES   REMARKS
MANISTIQUE     RAIN      59  58  97 S6        29.86S
ESCANABA       CLOUDY    57  55  94 CALM      29.83F
MENOMINEE      CLOUDY    61  61 100 SE3       29.83S VSB 1
SAWYER-GWINN   FOG       61  61 100 S8        29.84R VSB 1/4
$$
MIZ001>003-009>011-084-281200-
WESTERN UPPER MICHIGAN

CITY           SKY/WX    TMP DP  RH WIND       PRES   REMARKS
IRON MOUNTAIN  FOG       62  61  96 SE5       29.80F VSB 1/4
HOUGHTON       FOG       54  53  97 E5        29.79S VSB 1/4
COPPER HARBOR    N/A     57  57 100 VRB3      29.79F
IRONWOOD       CLOUDY    63  63 100 CALM      29.74S
$$

ABBREVIATIONS USED IN REMARKS
   TC - TEMPERATURE IN CELSIUS
  WCI - WIND CHILL INDEX
   HX - HEAT INDEX
  VSB - VISIBILITY




USA.gov is the U.S. government's official web portal to all federal, state and local government web resources and services.